Theta_e
319 324 322 325 326 323 320 320 323 323 320 322 326 325 322 320 318 318 318 316 314 317 320 319 318 317 316 316 314 313 316 314 313 314 315 316 317 317 317 317 318 318 318 318 318 318 318 318 318 318 318 318 318 317 317 316 316 316 316 316 315 315 314 315 314 314 314 313 314 314 314 315 315 316 316 317 319 320 324 323 320 326 334 333 332 331
321 324 325 330 328 322 320 320 319 318 319 322 324 321 321 324 320 317 318 317 313 316 322 321 319 318 316 316 314 313 314 314 314 314 314 316 316 317 317 317 318 318 318 318 318 318 318 318 318 318 318 318 318 318 317 317 316 316 316 316 316 315 315 315 314 314 314 313 313 313 313 314 314 314 314 314 315 315 318 319 319 325 333 334 332 331
322 324 328 326 319 317 319 318 319 321 323 326 323 318 322 326 321 317 319 318 316 317 323 324 320 317 316 316 313 311 313 314 314 315 315 316 316 316 317 317 317 317 317 317 318 318 318 318 318 318 318 318 318 318 318 317 317 316 316 316 316 315 315 315 314 314 314 314 313 313 313 314 314 314 314 314 314 314 315 316 318 325 332 333 332 332
321 325 324 317 314 317 319 319 321 322 324 328 325 321 324 326 321 319 320 318 317 318 321 322 320 318 317 316 317 313 313 315 315 316 316 316 316 317 317 317 317 317 317 318 318 318 318 318 319 319 319 319 319 318 318 318 317 317 317 316 316 316 315 315 315 314 314 313 313 314 313 314 314 314 314 314 315 314 314 315 316 322 329 332 331 331
323 323 317 314 318 323 320 319 323 321 319 325 329 328 328 325 320 319 320 320 321 321 320 320 321 327 327 324 326 321 314 314 315 315 317 317 317 317 317 317 317 317 317 318 318 319 319 319 319 319 319 319 319 319 318 318 318 317 317 317 316 316 316 315 315 314 314 314 314 314 313 314 314 313 313 314 314 314 314 314 313 316 324 329 331 330
322 317 315 317 321 325 323 320 326 326 320 320 325 327 326 325 323 325 327 325 323 323 321 318 320 332 338 330 330 329 322 321 318 314 316 319 318 317 318 318 317 318 318 318 318 319 320 320 320 320 320 320 320 319 319 318 318 317 317 317 316 316 315 315 315 315 314 314 314 314 313 313 313 313 313 313 313 313 313 313 313 313 316 323 328 328
319 316 320 325 322 323 324 320 322 325 321 318 320 323 326 327 326 330 330 322 322 323 320 318 319 326 329 322 322 325 324 326 321 315 316 318 319 319 318 319 319 319 319 319 319 319 320 320 320 320 320 320 319 319 318 318 317 317 316 316 316 316 315 315 315 315 315 314 314 314 313 313 312 312 312 312 312 312 312 313 312 312 312 314 319 322
318 319 322 327 326 324 323 321 321 323 323 321 320 324 330 328 324 328 328 321 324 325 322 323 321 322 324 321 319 318 317 320 319 317 316 315 318 319 318 319 319 320 320 320 321 320 320 319 319 320 319 319 318 318 318 318 318 317 316 316 316 316 316 315 315 315 315 314 314 314 313 313 313 312 312 312 312 311 312 312 312 312 312 313 314 315
317 322 324 325 326 325 325 326 324 323 323 323 322 325 331 329 327 332 330 325 326 322 323 327 320 319 327 327 322 316 316 319 319 320 317 313 316 317 318 320 319 320 321 321 321 320 319 319 319 319 318 318 318 318 318 318 318 317 316 316 316 316 316 316 316 315 315 315 314 314 313 313 313 312 312 312 312 311 311 311 312 312 312 314 313 313
316 319 321 323 325 325 325 323 323 325 323 321 321 325 330 330 331 332 328 328 329 321 322 328 323 317 320 325 322 315 317 322 322 322 317 313 316 318 319 320 319 321 321 321 320 319 319 319 318 319 318 318 318 318 318 318 318 318 317 317 317 317 317 316 316 315 315 315 314 314 313 313 313 312 312 312 312 311 311 311 312 312 313 313 312 314
315 314 315 319 321 320 320 318 317 322 319 318 324 330 330 330 334 334 331 330 326 320 323 328 325 316 316 324 326 319 321 324 321 322 320 316 317 318 320 320 320 321 320 320 319 318 319 319 318 319 318 319 319 318 318 318 318 318 318 318 318 318 317 316 316 316 315 315 315 314 313 313 313 312 312 311 312 311 311 311 311 312 313 312 314 319
318 317 315 316 315 314 318 318 316 318 319 321 331 332 324 327 335 333 331 328 322 321 327 328 325 317 314 322 325 322 325 324 321 324 326 320 318 320 322 322 321 321 320 319 318 319 319 318 319 319 318 319 318 318 318 318 318 318 318 318 318 318 317 317 317 316 316 316 315 315 314 313 313 312 312 311 311 311 311 311 311 312 312 312 316 322
321 322 317 314 314 315 320 323 319 321 324 325 327 324 316 320 327 327 327 327 324 323 324 324 322 317 315 319 321 324 327 323 318 320 321 319 319 322 322 321 321 321 320 319 319 319 319 318 319 318 319 319 318 319 318 318 318 318 318 318 317 317 317 317 317 316 316 316 316 315 314 313 312 312 312 311 311 311 311 310 311 312 312 312 316 320
322 323 318 315 316 316 318 322 319 320 324 323 321 321 319 320 323 323 324 324 324 325 322 319 320 321 322 323 323 324 322 319 317 316 317 318 319 320 320 320 321 320 319 319 319 319 318 318 318 318 318 318 318 318 318 318 318 317 317 317 317 318 317 317 317 316 316 316 315 315 314 313 313 312 311 311 311 311 311 310 311 312 313 313 314 317
321 322 321 318 317 317 318 319 319 322 322 321 322 321 320 324 326 325 324 323 324 326 323 318 320 326 326 323 322 319 315 316 317 317 318 319 319 319 319 319 320 319 319 319 319 319 318 318 318 318 318 318 318 318 317 317 317 317 318 317 318 318 317 318 317 317 317 316 315 315 314 314 313 313 312 312 311 311 311 310 310 312 313 315 316 318
316 320 322 317 314 317 318 316 316 320 319 318 323 321 319 323 324 322 325 327 326 324 322 321 324 327 324 321 319 317 316 316 315 317 318 317 319 319 318 319 319 319 319 319 319 319 318 318 318 318 318 318 318 317 317 317 317 317 317 317 318 318 318 317 317 317 317 316 316 315 315 314 314 313 313 313 312 312 311 310 310 311 312 315 317 318
316 320 320 314 313 315 316 315 314 316 318 318 320 320 322 324 322 320 321 320 320 319 319 319 321 321 318 318 318 317 318 318 314 314 317 317 319 318 318 318 317 318 318 318 319 318 318 319 318 318 318 318 318 318 317 317 317 317 317 317 317 317 317 317 317 317 316 316 316 316 315 315 314 314 314 314 313 312 311 310 310 310 312 314 316 317
322 323 319 317 318 315 312 315 315 314 316 320 321 319 320 322 323 325 323 320 319 318 319 318 316 316 315 317 321 319 317 319 319 317 315 315 317 318 318 317 317 317 317 317 318 318 318 319 318 319 318 318 318 318 318 318 317 318 317 317 317 317 317 317 316 316 316 316 316 316 316 315 314 314 314 313 312 312 311 310 310 310 312 315 317 318
322 320 317 316 318 317 314 316 317 315 315 319 321 319 320 324 324 324 323 321 319 318 321 321 315 314 314 315 319 318 317 321 323 322 320 317 314 315 317 317 317 318 317 317 317 317 318 318 318 318 318 318 318 317 318 318 318 318 317 317 317 318 317 317 316 316 316 315 315 315 315 315 314 314 313 313 312 312 311 310 310 311 312 313 315 318
319 316 317 316 316 316 317 318 319 319 317 317 318 317 321 327 326 324 322 320 320 318 318 318 313 313 316 318 318 316 317 319 318 320 324 318 313 315 317 317 317 317 317 318 318 318 319 318 318 318 318 318 318 317 318 317 317 318 317 318 318 318 317 317 317 316 316 316 315 315 315 315 314 314 313 313 313 312 311 310 310 311 312 312 313 317
317 314 315 316 315 316 319 319 317 318 319 319 320 320 321 321 321 323 322 320 322 322 319 316 313 314 319 321 319 317 318 319 317 319 320 314 313 317 317 317 317 317 318 318 319 319 319 318 319 318 318 318 317 318 318 317 317 317 317 318 317 318 317 317 317 316 316 316 316 316 316 315 315 314 313 313 313 312 312 311 310 310 311 311 313 317
315 315 319 319 317 318 321 320 316 316 319 319 318 320 320 319 319 319 318 319 321 324 325 320 313 316 320 319 318 320 320 317 315 316 315 314 316 317 318 317 318 318 318 318 319 319 318 318 318 318 318 318 317 318 318 317 318 317 317 317 317 317 317 317 317 317 316 316 316 317 316 316 315 314 314 313 313 312 312 311 310 310 310 310 313 316
315 320 323 321 319 318 319 317 314 315 318 318 318 318 317 318 319 318 319 320 321 324 327 322 315 316 320 322 322 322 319 314 313 313 314 315 316 317 318 318 319 319 318 318 319 319 318 318 318 318 318 318 317 318 318 318 318 317 317 317 317 317 317 317 317 316 316 316 316 317 317 316 315 314 314 314 313 313 312 311 310 309 309 310 312 314
315 319 318 318 319 320 320 319 316 316 318 318 319 319 318 318 319 321 324 323 322 324 322 319 317 316 319 325 321 315 314 314 315 315 315 316 317 317 318 318 319 319 317 318 319 318 318 318 317 318 318 317 318 317 318 318 318 317 317 317 317 317 317 317 317 316 316 316 316 316 317 317 317 315 315 315 314 314 313 311 310 309 309 310 312 313
315 319 318 318 319 319 321 323 320 318 318 319 323 322 318 318 318 321 322 319 320 324 321 318 318 316 321 330 323 318 319 316 314 316 316 317 317 316 318 319 318 318 317 318 318 317 318 318 317 317 317 317 318 318 318 318 317 318 317 317 317 317 316 316 316 316 316 315 315 316 316 317 317 317 316 315 315 314 313 312 311 310 309 310 312 313
319 321 317 316 316 316 318 320 320 319 318 320 325 323 318 318 318 318 319 318 318 322 321 319 317 315 319 325 322 323 325 319 315 317 316 317 317 317 318 318 317 318 318 318 318 318 318 318 318 318 318 318 318 318 318 317 317 317 317 317 317 317 317 316 316 316 315 315 315 315 316 316 317 317 317 316 315 314 314 312 311 310 309 309 312 313
323 322 315 314 316 315 315 317 319 321 319 319 321 320 318 318 318 317 318 318 317 318 318 317 317 316 317 318 319 322 326 326 322 317 316 317 317 317 317 317 317 317 317 317 318 317 318 318 318 318 318 318 318 318 318 317 317 317 317 317 317 317 317 317 316 315 315 315 315 316 316 316 317 317 317 316 315 314 314 313 312 311 309 309 310 312
323 320 315 316 316 313 315 320 321 319 318 318 318 318 318 318 317 317 317 317 316 316 317 316 316 316 315 315 317 319 322 325 320 314 315 317 316 316 317 316 316 316 316 317 317 317 318 318 318 318 318 318 318 318 318 318 318 317 317 317 317 317 317 317 316 316 315 315 315 316 317 317 316 316 316 315 315 314 314 313 312 311 310 309 309 310
322 319 317 317 315 314 316 321 322 318 317 318 317 317 318 318 317 317 316 316 316 316 316 315 316 317 314 314 317 316 315 316 314 313 315 316 315 316 316 316 316 316 317 317 317 317 318 318 318 318 318 318 318 318 318 317 317 317 317 317 317 317 317 316 316 316 315 314 314 315 316 316 316 316 315 315 314 314 314 313 313 312 310 309 309 309
318 321 320 317 316 316 317 319 320 318 316 318 318 317 316 316 317 317 316 316 316 316 316 315 316 316 313 314 317 316 313 313 313 314 315 315 315 316 315 316 316 316 317 317 317 317 317 317 317 317 318 318 318 318 317 317 317 317 317 317 316 316 316 316 316 316 316 315 315 315 315 315 316 316 315 315 315 314 313 313 313 312 311 310 309 308
315 319 321 318 317 317 317 318 319 318 318 319 320 320 318 317 316 316 317 317 316 317 316 316 317 316 314 314 316 314 314 314 314 314 315 315 315 315 315 316 316 316 317 316 317 317 317 317 317 317 318 318 317 317 317 317 317 316 316 316 316 316 316 316 316 316 316 316 315 315 314 314 315 315 315 315 314 314 313 312 312 312 311 311 309 308
316 318 320 319 318 318 317 318 318 318 317 318 319 320 319 317 316 315 316 317 317 317 317 317 317 317 315 314 315 314 313 313 313 314 314 315 315 315 315 316 316 316 316 316 316 317 316 317 317 317 317 317 317 317 316 316 316 316 316 316 316 316 316 316 316 316 316 316 316 315 314 314 314 314 314 314 314 314 313 312 312 312 311 311 310 309
316 317 319 318 318 317 317 318 318 318 318 318 317 317 317 316 316 316 316 316 316 316 317 317 317 316 315 315 316 316 315 313 313 314 314 315 315 315 315 316 316 315 316 316 316 316 316 316 316 316 316 316 317 316 316 316 316 316 316 316 316 316 316 316 316 315 315 315 315 315 315 314 313 313 313 313 313 313 313 312 312 312 312 311 310 309
314 315 316 316 317 317 317 317 318 318 318 318 316 316 316 316 316 317 316 316 316 315 316 316 315 315 315 315 316 316 316 315 315 315 316 315 314 314 315 316 316 316 316 316 316 316 317 317 316 317 317 316 316 316 316 316 315 315 315 315 315 315 315 315 315 315 315 315 315 315 315 314 313 313 313 312 312 312 312 312 312 312 311 311 310 309
312 312 313 314 315 317 316 316 318 319 318 319 318 317 316 315 315 316 316 316 315 316 316 316 316 316 315 315 315 315 315 315 316 316 316 316 314 315 316 316 316 316 316 317 317 317 317 316 316 316 316 316 316 315 316 315 315 315 315 314 315 314 315 315 315 315 315 315 315 315 314 314 313 313 312 312 312 311 311 312 312 311 311 310 309 309
312 312 312 313 314 316 316 317 319 319 317 318 320 318 316 315 316 316 316 316 315 315 316 316 316 315 315 314 315 315 315 315 315 316 316 315 315 315 316 316 316 316 316 316 316 316 316 316 316 316 315 315 315 315 315 314 314 314 314 314 314 314 314 314 314 314 315 315 315 314 313 313 313 313 312 311 311 311 311 311 311 311 310 309 308 308
313 312 312 314 314 315 317 317 318 318 317 317 318 317 315 316 317 317 317 317 316 315 314 314 315 315 315 314 314 315 315 315 315 315 315 315 315 316 316 316 315 315 315 315 315 315 315 315 314 314 314 314 314 313 313 313 313 313 313 313 313 313 313 313 314 314 314 314 314 313 313 313 312 312 312 311 311 311 310 311 310 310 309 307 307 307
313 313 313 314 315 315 316 316 317 317 317 316 316 316 315 314 316 317 317 317 317 315 313 314 315 315 314 314 314 314 314 315 316 315 313 314 315 315 315 314 314 314 313 313 313 313 313 313 313 313 312 312 312 312 313 313 314 314 313 313 312 312 312 313 313 314 314 314 313 313 312 312 311 311 311 310 310 310 310 310 309 309 308 307 306 306
313 313 313 313 315 315 315 316 316 316 316 316 316 316 315 313 313 314 316 319 318 314 312 313 315 314 314 314 313 314 315 317 317 314 312 313 314 313 313 313 313 312 312 311 311 312 311 311 311 311 311 311 312 311 312 312 312 312 311 311 311 311 312 312 312 313 313 313 313 312 311 311 310 310 310 310 309 309 309 309 308 308 307 305 305 305
313 313 312 312 314 315 315 316 316 315 316 319 318 315 313 311 312 315 318 319 315 310 311 313 312 312 312 312 313 315 317 317 317 313 311 311 312 312 312 312 311 312 312 311 311 311 311 311 311 311 311 311 311 311 311 310 311 311 310 310 310 311 311 311 312 312 312 312 312 312 311 310 310 309 309 309 309 308 308 308 307 307 306 305 304 304
314 313 313 313 314 314 315 316 316 315 317 320 318 313 311 312 315 318 318 315 309 307 309 310 310 310 311 310 310 312 314 313 312 311 310 310 311 312 312 311 311 311 311 311 311 310 310 311 311 311 311 311 311 310 311 311 311 311 311 311 311 311 311 311 311 311 312 312 312 312 311 310 310 309 308 308 307 307 307 306 306 305 305 304 303 303
314 314 313 314 314 314 315 315 315 316 317 317 314 311 312 315 317 316 312 309 307 306 307 308 309 309 309 309 309 310 310 310 310 310 310 310 311 311 311 311 311 311 311 311 311 311 311 311 311 311 311 311 311 311 311 311 311 311 311 311 311 311 311 311 311 311 311 311 311 311 311 310 309 308 307 307 306 306 306 305 305 304 303 303 302 302
314 314 314 314 314 314 314 315 316 316 314 312 312 312 313 314 313 310 307 307 307 306 306 306 307 307 308 308 308 309 309 310 310 310 310 310 310 310 310 310 310 311 311 311 311 310 310 310 310 310 310 310 310 310 310 311 311 311 311 311 311 311 311 311 311 311 311 311 311 311 311 310 309 308 306 306 305 305 304 304 303 303 302 302 301 301
313 314 314 314 314 314 314 315 315 313 309 309 312 313 310 308 307 306 305 305 305 305 305 305 305 306 306 306 307 308 308 308 308 308 309 309 309 309 309 309 309 309 309 309 310 309 309 309 309 310 310 310 310 310 310 310 310 310 310 311 311 311 311 311 311 311 311 311 311 311 311 310 309 307 306 305 304 303 303 303 302 301 301 301 300 300
312 311 310 312 313 312 312 313 311 308 307 308 309 308 306 305 305 305 305 305 304 305 304 305 305 305 305 305 305 306 306 306 307 307 306 307 307 308 308 308 308 308 308 308 308 308 308 308 309 309 309 309 309 309 309 309 310 310 310 310 310 310 310 311 311 311 311 311 310 310 310 310 309 307 306 304 303 302 302 301 301 300 300 300 299 299
308 306 307 311 312 310 309 309 308 305 305 307 306 305 305 305 305 305 304 303 303 303 303 303 304 304 304 304 304 304 304 304 304 304 304 305 305 306 306 306 306 307 307 307 307 307 307 307 308 308 308 309 309 309 309 309 309 309 310 310 310 310 310 310 310 310 310 310 309 308 307 307 307 306 305 304 302 301 300 300 300 300 299 299 299 298
306 305 308 311 311 310 310 308 305 304 304 305 304 303 304 305 304 303 302 301 301 302 302 303 304 304 304 304 304 304 303 303 303 303 303 303 304 304 304 304 304 305 305 306 306 306 306 307 307 307 308 308 308 309 309 309 309 309 309 309 309 309 309 310 310 309 309 309 307 306 304 304 304 304 303 303 301 300 300 299 298 298 298 298 298 298
306 305 308 310 310 310 309 305 302 302 304 304 303 303 303 303 303 302 301 301 301 301 302 302 303 303 303 303 302 302 302 302 302 302 303 303 303 303 303 303 303 303 304 304 305 305 306 306 306 307 307 308 308 308 309 309 309 308 308 308 308 309 309 309 308 308 307 306 305 304 303 302 301 301 300 300 300 299 299 298 298 297 297 298 298 298
304 305 306 307 307 308 307 304 302 303 305 304 302 302 303 302 302 301 300 300 300 301 301 302 302 303 302 302 301 301 301 301 301 300 301 302 303 303 303 303 303 303 303 303 304 304 305 305 306 306 306 307 307 307 308 308 308 308 307 308 308 308 308 308 307 306 305 304 303 302 301 300 300 299 298 298 298 298 298 298 297 297 297 298 298 298
302 305 306 304 305 306 306 306 304 304 305 303 301 301 303 302 301 301 300 300 299 299 300 300 301 301 302 301 300 299 299 300 300 300 300 302 302 303 303 303 303 303 302 303 303 304 304 304 305 305 306 306 307 307 308 308 308 308 307 307 308 308 307 306 305 304 303 302 301 300 299 299 298 298 297 297 297 296 296 296 296 296 297 297 297 297
301 304 304 303 304 305 304 303 301 302 303 302 300 301 302 301 301 300 299 299 298 298 298 299 298 299 300 300 299 298 298 298 299 299 300 301 302 302 302 302 303 302 302 302 303 303 304 304 304 304 305 305 306 306 307 307 307 307 307 307 307 307 306 305 304 303 302 301 300 299 298 298 297 297 296 296 296 296 296 296 296 296 296 295 295 295
Wind_Speed
4 4 2 4 5 6 6 7 7 6 6 7 5 4 3 2 3 4 2 2 2 2 5 7 7 9 10 9 14 24 25 20 21 22 25 29 29 30 29 29 28 29 31 29 26 26 25 25 24 24 24 23 24 25 26 26 27 26 26 28 28 28 28 29 30 30 31 32 34 35 35 36 36 36 37 37 37 36 34 32 31 33 35 35 33 31
4 3 4 7 8 8 7 8 7 4 5 6 5 4 3 0 2 4 2 3 2 1 5 4 5 11 10 9 14 20 17 18 23 23 25 29 28 29 29 30 30 30 31 29 27 26 25 25 24 24 25 25 25 25 26 28 28 28 28 27 27 27 29 29 30 30 31 33 34 35 35 35 35 35 36 37 37 36 35 33 34 34 34 37 37 33
3 2 7 9 7 5 2 4 7 5 6 5 4 4 2 2 2 3 3 3 2 1 4 4 5 12 12 9 13 19 17 22 29 26 26 28 27 30 32 32 33 32 32 30 28 27 25 26 25 25 25 25 26 25 25 27 28 29 29 29 28 28 29 29 29 31 32 33 34 35 35 34 34 33 35 37 37 36 35 33 34 36 36 36 36 34
2 5 9 9 6 6 4 4 8 5 4 4 4 5 1 3 1 2 4 4 2 1 3 5 5 10 12 8 10 19 23 28 32 30 29 30 30 33 34 32 32 31 31 29 26 24 23 24 24 24 25 24 24 24 25 26 27 28 29 30 30 30 29 29 30 31 32 33 34 35 35 35 34 33 34 36 38 38 38 35 35 38 40 37 37 37
4 6 5 5 5 7 5 4 7 5 1 1 3 6 3 3 3 3 2 3 3 4 3 4 6 7 7 6 7 10 12 18 26 26 28 31 31 33 33 31 30 29 29 27 25 22 21 22 22 22 23 23 23 23 23 23 24 25 26 28 29 29 30 31 31 31 32 34 35 36 36 36 36 35 35 37 39 40 40 39 36 39 43 44 41 40
6 5 2 7 4 5 7 3 3 6 1 3 2 5 6 5 4 2 3 4 5 5 3 3 4 6 5 6 7 6 3 8 13 14 22 27 25 26 27 26 25 24 24 23 23 22 20 19 20 21 21 22 22 21 21 21 22 23 24 25 26 28 30 31 31 32 32 33 35 36 37 38 38 37 37 37 38 40 41 40 37 37 41 46 47 44
3 0 4 7 5 6 7 2 3 6 5 1 4 4 6 6 6 5 5 4 1 3 4 2 2 6 7 6 10 9 7 8 8 8 18 24 21 21 22 21 20 18 17 18 18 18 18 18 19 20 19 19 19 18 19 20 21 22 23 23 24 25 27 28 30 31 33 34 34 35 36 37 38 37 36 35 35 38 39 38 36 36 36 40 45 46
2 4 5 5 5 5 5 2 4 6 7 3 5 2 5 7 6 4 6 3 3 3 5 1 3 4 6 7 11 12 10 10 9 10 15 21 23 22 22 19 18 16 13 13 14 14 14 15 16 16 15 14 14 14 16 17 18 19 20 21 21 22 24 25 27 29 31 32 33 34 35 36 36 36 35 34 33 34 36 37 35 35 35 35 38 41
1 5 5 6 5 3 5 4 5 8 7 5 5 4 6 7 6 5 6 2 1 2 5 4 2 3 6 7 6 5 7 9 11 12 13 18 22 21 20 18 15 13 12 11 10 10 9 9 9 9 9 9 9 10 12 13 14 16 17 18 19 20 21 23 25 26 27 29 31 32 34 35 35 35 33 33 32 32 33 35 35 34 34 34 35 36
0 4 5 6 5 4 4 2 3 6 5 4 3 6 6 5 5 5 5 2 3 2 5 5 5 2 6 6 2 2 3 8 10 10 10 15 20 18 16 14 12 10 10 9 9 7 6 5 5 5 6 6 7 7 8 9 11 12 14 15 17 18 19 21 23 24 25 26 28 30 32 33 34 33 33 33 32 32 32 34 34 34 34 35 34 33
2 1 1 3 4 5 5 3 4 4 8 7 5 7 7 6 5 4 3 4 3 4 6 8 9 4 4 5 4 4 4 8 8 5 7 12 15 13 11 9 9 9 8 8 8 7 6 5 5 5 4 5 5 6 7 7 8 10 11 13 15 16 18 20 21 22 23 24 26 27 29 31 32 32 33 34 33 33 33 34 34 34 34 34 33 32
5 2 0 1 4 6 7 5 7 6 7 7 5 5 4 4 5 5 5 4 1 5 7 7 6 4 5 6 3 5 6 5 7 5 6 8 5 7 10 9 7 7 7 8 8 7 7 6 6 5 5 6 7 7 8 8 8 9 11 12 14 16 17 19 20 21 22 23 24 26 27 29 30 31 32 34 34 34 34 34 34 34 35 34 34 35
3 2 2 2 2 5 7 5 5 6 5 5 5 6 4 2 3 3 3 0 3 6 6 4 1 3 7 6 5 7 8 6 7 7 6 5 6 8 8 7 7 7 7 8 8 7 7 7 7 7 7 8 9 10 10 10 10 11 12 14 15 16 17 18 20 21 22 22 23 25 27 28 28 30 32 33 34 34 34 34 34 36 37 37 37 39
2 6 1 3 2 5 7 6 3 1 0 5 5 6 4 3 1 3 3 1 4 5 5 2 1 3 5 4 7 9 9 8 7 7 6 3 4 6 7 8 8 8 9 9 8 7 6 7 8 8 9 10 11 12 13 13 13 14 14 15 15 16 17 18 19 21 22 23 23 24 26 26 27 28 30 32 34 35 34 34 35 37 38 39 39 40
4 5 4 5 3 8 8 6 8 6 4 5 5 6 6 5 5 5 4 3 5 4 4 3 1 3 2 3 7 7 8 9 9 11 12 12 13 10 9 10 10 12 12 10 10 8 7 8 9 9 10 10 12 13 14 15 15 15 15 15 15 16 17 17 19 20 21 22 22 23 25 25 26 26 28 31 33 35 35 35 36 37 38 39 40 41
5 5 6 4 5 12 11 7 9 8 2 3 3 5 4 6 6 3 3 6 4 2 3 2 4 5 4 6 8 6 9 10 10 10 11 16 18 14 13 14 14 14 13 12 12 9 9 10 10 9 9 10 11 12 14 15 15 15 15 14 15 15 16 18 18 18 18 19 21 22 23 25 25 26 28 30 32 34 35 35 36 36 37 39 40 40
4 4 4 0 2 8 8 6 7 6 3 2 3 4 5 5 7 3 3 0 3 2 4 2 5 6 3 7 9 8 11 11 9 9 10 17 19 16 18 20 18 16 14 14 13 10 10 10 8 8 8 9 10 11 12 13 14 15 15 14 14 15 16 17 17 18 17 17 18 20 22 24 25 26 28 29 31 34 35 36 36 35 35 36 37 37
5 2 4 2 2 5 2 2 1 1 4 5 4 6 3 2 3 3 1 2 2 4 5 2 7 7 2 5 5 1 7 9 7 8 12 17 18 18 21 22 20 19 16 15 13 11 11 8 6 6 7 8 10 11 12 12 13 14 15 15 14 15 16 16 18 18 18 17 16 18 20 22 24 25 27 29 31 33 35 36 36 35 34 33 34 34
5 3 4 1 2 4 2 2 1 3 2 5 4 4 4 2 1 2 2 2 1 3 5 4 5 5 6 7 3 2 6 8 9 9 9 13 18 21 22 20 18 15 14 14 14 12 9 5 5 7 9 10 11 13 14 14 15 16 17 16 15 16 16 17 19 19 18 18 17 17 19 21 22 24 26 29 31 33 35 36 37 36 34 33 33 34
3 4 4 2 1 2 3 2 6 2 1 1 2 2 2 3 4 3 3 4 4 4 5 4 3 4 6 7 6 8 11 10 11 10 8 13 20 21 20 17 12 8 9 12 13 10 6 2 5 7 10 11 12 15 18 19 20 20 20 19 18 18 18 19 19 18 18 17 16 17 19 20 21 22 25 27 30 33 35 36 37 37 35 33 33 34
2 4 4 2 3 0 2 4 8 9 6 3 3 4 2 1 2 2 2 3 4 4 3 4 6 8 5 5 8 11 12 11 12 10 9 14 20 19 17 14 10 4 7 12 13 9 4 2 5 5 8 10 10 14 18 22 25 24 24 24 23 22 21 20 20 19 18 16 16 17 18 20 21 21 23 25 28 33 35 36 37 36 34 33 34 36
3 3 4 2 0 4 6 6 6 10 10 7 7 8 8 6 4 3 4 2 2 3 5 3 8 10 4 5 7 9 9 10 11 10 10 15 20 17 12 10 8 5 8 15 16 10 4 4 6 7 9 9 8 11 16 21 26 27 27 27 28 27 25 22 21 21 20 18 17 17 18 20 22 22 22 23 26 31 34 36 37 36 35 35 37 39
6 4 4 3 4 5 6 5 2 6 6 3 4 6 6 6 6 6 6 4 1 3 4 3 5 9 3 4 6 6 7 8 12 14 12 12 13 9 5 4 5 4 10 15 14 9 4 6 9 11 13 12 11 12 16 21 25 28 30 30 30 31 30 27 25 23 23 21 18 18 18 21 22 23 23 22 24 28 32 36 37 37 35 35 38 39
4 3 3 2 3 3 4 5 4 1 1 3 4 3 4 4 4 5 5 4 3 5 5 3 6 9 4 1 3 2 1 3 8 12 11 8 6 4 2 1 2 8 14 15 13 9 6 10 13 14 15 16 16 17 21 25 27 27 30 32 32 33 33 32 30 28 27 25 22 20 20 22 23 23 24 23 23 25 29 33 36 37 37 35 36 38
7 3 4 3 1 3 3 4 4 3 0 3 4 4 6 7 6 4 2 3 2 7 9 6 8 9 4 4 3 4 5 3 4 7 7 2 2 3 2 3 8 15 18 18 17 13 11 16 19 18 21 24 25 26 27 29 29 29 31 33 34 34 34 34 35 33 31 29 27 24 23 24 24 25 25 25 24 24 26 31 35 37 38 36 37 38
8 4 5 7 6 7 6 5 5 3 2 2 4 8 11 11 11 7 3 4 6 9 8 6 10 10 3 3 5 5 5 4 4 3 4 8 10 9 6 8 14 17 17 17 18 17 18 23 26 28 30 31 31 30 30 29 30 32 34 35 36 36 35 35 36 37 36 33 30 28 26 25 27 27 26 26 25 24 25 28 33 37 39 38 38 40
4 3 9 10 11 12 11 8 6 7 7 7 10 12 12 11 13 10 5 6 11 10 7 9 13 15 11 3 1 4 3 4 6 6 8 7 6 7 8 11 15 18 18 19 21 24 26 29 31 32 32 31 30 30 29 31 34 36 37 36 36 36 36 36 36 38 39 38 34 31 29 27 28 29 29 28 27 26 26 27 30 35 39 39 40 41
3 3 10 12 14 14 10 7 9 12 13 14 15 13 12 12 13 13 11 14 13 8 9 13 12 15 18 10 7 9 6 4 7 9 10 9 7 9 13 18 24 25 24 24 26 28 29 30 31 30 30 30 28 28 31 35 37 36 37 37 36 36 37 37 38 38 39 40 40 36 32 30 30 32 32 31 30 29 28 28 29 34 37 39 42 43
4 6 9 10 13 14 8 5 8 12 12 13 15 16 15 15 16 17 19 20 15 10 12 15 12 15 21 12 9 12 10 8 10 12 13 12 12 16 22 27 31 30 28 28 28 28 28 30 31 30 31 30 28 30 34 36 37 37 37 37 36 36 36 36 38 39 38 40 42 40 36 34 34 35 36 35 33 32 31 30 30 32 36 39 42 44
3 5 5 6 9 12 9 6 7 9 7 5 9 12 13 16 19 21 22 22 18 13 14 18 15 18 19 7 8 12 13 11 10 11 14 16 19 23 25 27 28 28 28 28 27 28 29 30 32 32 31 30 30 33 36 37 37 38 38 37 36 36 35 36 38 39 39 39 40 40 40 39 37 38 40 39 36 35 35 33 32 32 35 39 41 44
2 3 0 4 5 10 9 6 5 6 5 2 5 6 9 14 17 19 18 16 14 13 16 18 16 17 14 4 6 13 13 9 11 15 20 25 27 24 21 23 26 26 27 28 27 27 28 28 30 30 31 32 34 36 37 36 36 36 36 35 35 34 34 35 37 38 39 39 38 39 42 43 42 42 43 43 40 39 38 37 35 34 35 38 41 44
0 1 2 4 4 9 7 6 5 4 4 2 8 10 12 12 10 12 12 12 13 15 15 14 13 15 11 4 4 12 11 8 14 20 23 26 27 22 19 24 28 27 25 25 25 26 27 28 30 31 32 34 34 33 33 33 33 33 33 32 32 32 32 34 35 36 37 38 38 39 41 43 45 46 46 46 44 42 41 40 39 37 36 39 42 44
2 2 1 2 4 10 7 6 7 4 2 5 12 15 17 12 6 6 9 13 15 12 10 10 12 15 11 3 4 11 9 8 16 24 26 25 21 17 20 26 29 26 24 26 30 31 31 31 30 30 30 29 29 29 30 31 31 31 30 30 29 29 30 32 33 35 35 36 37 39 41 43 45 47 47 48 47 46 44 43 42 40 38 39 41 44
2 3 1 2 3 9 6 6 6 3 6 11 12 11 12 12 11 10 11 12 11 9 8 10 10 13 13 7 7 10 12 16 23 29 34 29 16 12 20 29 30 28 28 32 34 32 29 28 27 27 26 26 27 28 28 29 30 30 30 29 28 28 29 30 31 32 33 34 35 37 39 42 44 46 47 48 48 49 48 46 45 43 41 40 41 44
3 3 2 2 2 4 1 5 4 9 9 9 8 6 10 13 15 16 15 14 12 11 11 11 13 15 15 14 16 18 21 25 28 32 37 30 16 13 23 30 30 30 32 31 29 26 25 25 25 24 23 24 25 27 28 29 31 31 31 30 29 29 29 30 31 32 33 34 34 36 38 40 42 44 45 46 48 50 50 49 47 46 45 43 43 44
7 5 3 2 2 2 1 5 6 5 3 6 8 7 8 8 9 11 13 14 14 13 12 13 17 17 17 22 26 26 26 26 27 34 36 25 17 22 29 31 29 28 27 24 22 22 21 21 21 21 22 23 25 27 29 31 32 33 33 32 31 31 31 31 31 32 33 34 34 35 36 38 40 42 44 45 47 49 51 50 49 48 47 45 44 44
9 6 3 4 4 3 4 5 4 4 6 9 10 5 4 6 7 8 8 10 11 14 15 15 17 18 20 25 28 27 25 20 19 26 26 17 20 28 26 22 20 18 17 17 17 17 18 19 21 22 24 25 26 28 30 32 34 35 37 37 35 34 33 32 32 32 33 34 34 33 34 35 37 40 42 44 46 48 49 50 50 49 48 47 46 45
10 8 7 6 5 5 6 6 5 5 7 11 12 4 7 12 12 10 7 8 7 13 18 16 15 17 17 18 21 22 18 10 9 15 14 11 16 20 14 11 13 13 14 16 17 18 20 21 23 24 25 27 27 28 30 33 35 37 38 38 37 35 34 33 34 33 33 33 33 32 32 34 36 38 40 43 45 46 47 48 49 49 48 47 47 45
12 9 8 7 5 5 7 7 7 7 7 9 9 4 9 17 14 9 5 7 5 9 19 18 14 15 16 16 18 15 7 3 7 9 9 8 9 12 13 13 14 16 18 18 19 21 22 22 23 24 24 26 27 28 29 30 32 33 34 34 34 33 33 33 34 33 32 31 32 32 33 33 35 36 38 41 43 44 45 46 47 48 48 47 46 44
11 8 6 7 8 8 8 7 6 5 6 7 5 4 9 16 14 8 4 6 5 3 7 11 7 7 11 13 12 9 5 5 8 8 11 11 11 14 16 17 18 19 20 20 20 21 22 22 24 25 25 25 26 26 26 27 28 29 30 31 31 32 32 32 31 30 30 31 32 33 33 34 34 36 37 39 40 41 43 44 45 46 46 45 44 43
8 7 7 8 9 10 11 9 5 3 6 7 5 5 10 14 10 5 6 3 6 10 9 8 9 9 7 7 3 2 5 7 11 14 17 18 18 18 19 21 22 21 21 21 20 21 23 24 25 25 26 27 27 27 27 28 30 30 31 31 32 32 32 31 31 31 31 32 33 33 34 34 35 35 36 37 38 39 41 43 44 44 44 43 42 41
7 5 6 8 9 8 8 7 5 4 4 4 6 9 11 9 3 3 2 4 6 9 13 14 13 12 12 12 10 7 10 13 16 19 22 22 23 24 25 25 26 25 24 24 24 24 26 28 28 28 28 28 29 30 30 30 32 32 32 33 33 33 33 33 33 33 33 33 33 33 33 33 34 34 35 35 37 38 40 41 42 42 42 41 40 40
7 5 5 7 7 6 6 6 5 3 2 3 3 4 3 3 2 0 3 6 10 11 11 11 11 10 10 11 11 12 15 17 19 21 24 25 25 25 26 26 27 27 27 27 27 27 28 30 31 31 31 31 32 32 32 32 34 34 34 35 35 35 35 36 36 35 35 35 35 34 34 33 33 33 33 34 35 36 38 39 40 40 39 39 39 39
4 5 4 4 4 4 6 6 3 2 4 7 6 4 4 5 6 7 6 7 12 14 13 12 12 11 11 10 11 13 15 17 19 21 23 26 26 26 27 27 27 27 27 27 27 27 28 31 33 34 34 33 32 32 31 32 33 34 35 35 35 35 36 37 37 37 37 36 36 36 35 33 32 31 32 32 32 34 36 37 38 38 37 37 38 38
3 3 2 2 3 2 3 3 2 3 6 11 14 13 12 10 10 11 10 11 13 15 15 15 15 13 13 12 11 12 14 17 19 21 23 25 27 28 28 28 28 29 30 30 30 29 30 32 34 35 35 35 32 30 29 29 31 34 36 35 35 35 36 36 37 39 39 37 36 35 35 33 32 31 30 30 30 32 34 35 36 36 36 36 36 36
2 3 4 1 2 2 1 3 4 3 6 13 17 15 13 12 10 11 12 14 14 14 14 14 14 13 12 12 12 12 14 17 19 22 24 25 27 28 29 30 30 30 31 32 32 32 32 33 35 35 36 36 32 28 28 30 32 34 36 37 37 37 37 38 39 40 40 38 35 34 33 33 32 30 29 28 28 29 31 33 34 35 35 35 35 35
1 2 3 1 1 2 1 2 2 3 3 14 15 11 11 11 10 11 12 13 12 12 12 12 13 13 12 12 13 14 16 18 21 24 26 27 29 30 31 32 32 32 33 33 33 33 33 34 36 36 36 36 33 29 28 31 32 33 35 37 38 38 38 39 40 41 40 37 35 33 31 31 31 30 28 28 27 28 30 31 31 32 33 34 34 35
1 2 2 1 3 3 2 1 1 2 6 14 10 9 10 10 9 9 10 10 9 9 9 9 10 11 12 14 15 17 19 21 22 25 27 28 29 31 32 33 34 35 35 34 34 34 35 36 37 37 37 37 35 32 31 32 32 33 35 36 37 38 39 40 40 40 38 35 33 31 30 29 29 29 28 28 27 28 29 30 30 31 31 31 32 33
1 1 1 2 1 1 4 3 3 4 5 6 4 9 9 7 8 8 8 10 10 10 10 9 9 11 13 15 18 20 24 25 25 25 27 28 29 30 31 33 34 35 35 35 36 36 36 37 38 38 38 38 36 35 34 34 33 33 34 35 36 37 38 40 40 38 35 33 30 28 28 27 27 27 27 27 27 28 28 28 28 28 28 28 29 30
3 1 1 3 2 1 3 2 2 3 3 5 4 8 6 7 9 10 12 13 13 14 14 14 14 14 14 17 20 23 26 28 28 28 28 29 29 30 31 32 34 35 36 36 36 36 36 37 38 38 39 39 38 36 36 36 35 34 34 34 35 36 37 37 37 35 32 29 26 25 25 25 25 25 26 26 26 27 27 27 26 25 25 26 26 26
3 3 2 3 3 5 6 3 1 1 4 4 3 4 4 8 10 12 14 15 14 15 15 17 19 20 21 22 24 26 27 29 30 30 31 32 32 31 31 31 33 35 36 36 36 36 37 37 37 38 40 40 39 38 37 36 35 34 34 34 34 34 34 33 32 31 28 25 23 22 22 22 23 23 24 25 25 26 26 27 26 25 24 23 22 21
Wind_Direction
123 87 121 189 197 206 213 186 177 180 141 125 119 103 130 138 298 277 266 296 98 127 246 234 240 257 257 262 264 267 272 269 261 254 251 252 254 255 256 257 257 256 261 267 266 264 264 265 265 264 261 257 252 248 244 241 241 244 244 245 244 242 241 240 239 237 236 235 235 236 236 238 239 242 244 244 244 242 240 236 227 227 230 229 229 226
100 107 216 217 203 198 217 199 159 127 96 93 107 85 11 338 269 272 254 300 29 82 264 270 279 271 258 254 263 265 268 264 256 251 252 254 255 257 258 260 261 263 266 267 265 264 261 260 260 260 258 256 254 253 250 246 243 243 243 244 245 244 242 242 243 241 241 241 240 241 241 241 242 244 248 248 247 244 242 236 227 226 227 229 229 226
64 201 238 232 207 165 173 153 123 100 87 83 105 100 4 274 248 306 329 333 26 109 271 314 312 281 271 254 255 255 249 254 256 252 254 256 257 259 259 261 263 265 267 266 266 265 261 258 257 257 257 257 257 256 253 250 246 244 244 244 243 243 243 243 245 244 244 243 242 243 243 243 244 247 250 251 250 247 244 238 227 224 224 225 226 227
107 242 244 230 187 120 76 83 95 79 77 87 103 115 240 271 206 285 311 311 298 221 283 320 316 285 283 275 257 253 246 252 259 259 260 260 259 260 262 264 265 265 267 267 266 264 259 255 253 253 254 254 254 253 252 252 250 249 249 248 246 245 244 243 243 244 244 243 242 242 242 242 244 246 247 248 248 247 245 241 231 224 222 224 227 230
205 257 238 180 136 116 110 79 90 98 27 335 129 140 203 249 185 199 286 317 325 344 338 341 326 291 290 294 277 270 255 252 258 260 261 258 256 259 263 264 264 265 268 269 266 262 257 252 251 252 251 250 252 254 256 256 256 255 255 254 253 250 248 246 245 244 243 242 241 240 239 240 240 242 243 244 246 245 244 242 236 227 223 224 228 232
235 271 156 139 106 96 118 127 140 139 141 311 238 181 185 178 151 115 23 28 18 339 320 32 350 293 303 303 277 291 306 260 259 256 254 255 253 255 259 263 265 266 268 269 267 263 259 254 250 248 247 248 252 256 260 261 260 259 257 256 255 253 251 250 249 248 246 244 243 242 240 240 241 243 245 247 248 247 245 243 241 236 229 226 227 230
225 313 97 130 128 99 105 139 207 146 121 269 259 214 173 133 100 77 55 53 55 268 268 92 121 270 300 293 265 268 271 268 275 265 254 254 253 253 259 266 267 266 264 262 262 260 257 252 245 244 247 251 256 260 260 259 258 256 255 254 253 253 252 252 252 251 250 248 247 246 245 245 246 248 252 253 253 251 248 245 244 242 237 230 228 228
141 101 76 95 106 104 118 172 215 144 124 219 259 178 127 101 99 107 85 92 215 260 305 332 155 255 288 263 252 253 259 273 277 269 261 257 257 259 263 267 266 264 257 246 248 251 249 248 247 247 250 254 256 257 255 255 256 256 255 254 254 254 253 253 253 253 253 253 252 251 249 249 249 251 253 254 254 253 248 243 241 242 241 235 230 228
125 153 165 138 116 134 171 220 212 142 119 241 243 118 111 107 115 111 93 104 299 5 311 292 155 245 271 258 261 252 249 266 261 252 256 259 260 261 262 263 262 256 240 227 236 245 241 239 239 238 240 242 243 245 251 256 259 259 257 255 254 255 255 255 256 257 258 257 256 255 253 253 252 253 254 254 254 252 246 241 240 240 239 236 233 230
66 174 185 147 142 187 196 265 222 150 139 208 175 79 67 71 75 75 89 86 26 359 262 228 173 230 271 250 227 112 222 245 249 252 255 256 258 261 262 254 241 229 217 218 232 234 225 208 198 207 216 224 230 237 249 258 260 261 259 257 257 258 258 259 260 261 261 261 260 258 256 255 255 254 253 254 253 250 244 239 238 238 236 236 234 229
345 93 134 119 148 174 150 65 35 125 139 132 94 59 45 29 33 41 58 73 48 292 255 208 189 203 285 262 202 171 210 219 222 248 264 261 262 256 241 220 210 209 207 219 229 221 211 199 193 207 219 225 233 240 250 257 260 263 263 262 262 262 262 262 263 264 264 265 264 263 261 259 257 255 255 254 253 250 244 238 237 236 234 234 230 222
348 46 344 117 134 127 107 58 30 60 106 102 80 77 61 353 10 17 0 45 101 257 262 237 200 184 246 273 258 248 263 231 196 204 236 250 244 204 193 192 197 208 216 221 222 217 215 216 220 232 240 246 252 258 261 263 264 266 266 266 266 266 268 268 268 269 269 269 268 266 265 262 260 258 257 256 255 253 248 242 239 235 232 231 224 218
326 260 244 100 152 150 115 77 24 13 40 80 99 101 91 329 8 356 306 340 218 245 263 265 216 211 242 257 256 265 279 252 211 205 203 181 162 170 188 212 217 219 232 231 222 221 224 232 243 249 255 261 268 273 272 269 270 269 269 269 271 274 276 275 275 275 274 273 272 270 267 265 263 261 260 259 257 255 251 245 240 235 232 228 223 220
276 303 304 98 270 205 154 133 147 272 128 135 137 132 138 145 144 250 255 280 264 262 279 283 193 253 280 277 240 240 250 254 266 265 250 232 224 228 238 242 239 242 248 246 238 235 239 253 261 261 264 270 275 278 276 274 273 271 272 274 278 282 282 282 281 280 278 277 274 273 270 268 266 264 263 261 259 256 251 245 240 236 233 231 228 225
201 287 215 174 199 187 183 180 162 148 159 181 156 135 158 167 167 205 205 213 247 277 298 295 224 207 221 275 249 243 261 279 303 285 264 267 266 262 262 257 257 258 256 255 252 250 264 277 277 272 273 277 281 282 279 277 274 272 274 278 282 284 283 281 280 280 281 281 277 274 273 271 270 269 267 263 260 256 251 245 240 236 233 231 230 228
187 255 231 203 172 169 181 189 152 121 116 222 134 119 191 193 155 161 194 184 182 312 298 244 230 215 204 268 271 277 281 279 285 277 260 258 257 255 261 261 260 260 263 267 265 271 289 289 286 286 288 291 292 288 284 280 277 275 274 275 278 279 277 276 274 276 280 283 282 279 276 275 273 272 270 266 261 256 250 245 242 239 235 232 230 229
167 268 272 154 167 180 181 176 160 155 176 185 153 175 207 173 131 140 251 226 99 257 272 207 249 279 319 283 264 248 260 273 289 286 264 254 252 253 259 262 265 268 274 278 278 289 297 294 300 305 308 316 316 309 297 288 283 280 275 271 272 271 271 273 273 274 277 280 285 285 281 279 276 274 274 270 262 255 250 246 243 241 237 233 230 229
151 245 287 122 198 239 221 160 162 118 136 138 188 202 168 89 98 121 219 343 45 253 271 215 239 269 288 268 283 257 256 276 290 272 259 257 253 250 254 259 264 269 277 283 287 297 296 295 310 318 326 335 341 336 321 305 294 286 277 269 268 269 270 273 274 273 273 275 283 289 287 282 279 277 275 270 262 254 249 246 244 241 236 229 228 227
153 198 291 58 193 267 357 131 225 341 106 146 189 186 124 126 227 118 156 204 185 241 273 257 242 250 222 227 282 324 262 265 265 253 250 253 247 243 248 255 259 266 280 287 294 298 289 288 325 341 347 349 352 350 341 328 313 300 289 277 269 270 271 271 272 273 272 272 277 286 290 286 282 278 275 270 262 255 250 246 243 241 236 228 226 227
144 188 260 334 238 290 24 165 198 222 334 43 85 121 109 140 174 170 166 171 171 205 254 268 260 250 224 198 188 225 241 244 244 241 233 238 239 238 242 246 248 266 296 301 302 293 265 272 346 357 356 354 357 355 348 339 328 316 303 288 275 270 270 270 272 274 275 274 276 282 287 289 286 280 276 271 264 258 253 248 244 240 236 231 227 226
115 198 227 322 340 229 178 214 194 175 172 165 156 181 200 112 115 170 194 152 148 171 211 264 272 263 240 178 176 205 226 228 226 228 229 233 235 237 240 240 237 262 332 328 312 285 244 291 330 341 343 345 353 354 348 339 332 325 313 299 284 273 269 271 274 275 275 274 276 281 284 287 287 282 277 273 266 261 256 251 246 240 235 231 228 225
194 197 171 149 278 203 219 243 206 184 184 178 179 191 191 171 143 174 241 238 127 167 178 197 268 268 231 186 198 206 222 228 217 210 218 234 236 232 231 237 243 267 339 334 310 281 274 316 304 302 312 317 330 340 336 330 327 325 321 311 295 282 274 272 274 276 274 271 273 281 283 282 282 281 278 274 268 263 258 253 248 242 236 231 227 225
173 113 127 180 213 212 241 276 218 198 211 212 206 195 184 180 162 168 215 228 147 224 200 146 261 270 249 174 198 208 224 221 208 204 209 229 233 220 214 239 256 306 346 338 309 278 296 325 309 304 303 300 308 322 322 318 319 320 321 317 307 296 285 275 271 272 270 268 271 280 283 281 279 279 279 277 272 266 260 255 250 244 239 233 229 228
153 110 145 208 321 330 317 335 4 37 199 232 240 184 150 188 179 157 184 182 164 222 210 159 247 262 291 244 174 146 121 146 176 191 181 166 169 163 166 205 14 357 348 334 308 282 297 316 309 306 304 301 305 313 313 310 311 314 316 315 312 307 297 283 273 269 268 266 268 273 280 284 281 277 278 279 277 272 264 257 251 246 241 234 230 229
175 186 152 143 308 319 334 335 329 334 223 213 230 193 177 188 171 140 157 156 197 225 197 190 239 248 290 334 359 26 19 45 141 163 149 129 296 307 13 26 357 342 331 319 302 285 287 301 304 308 310 310 311 309 303 302 306 310 312 312 310 309 305 293 280 271 268 266 265 266 273 282 281 278 277 278 279 276 267 259 252 246 242 236 230 228
174 193 163 164 203 219 222 221 211 204 180 204 226 206 195 187 175 177 187 177 225 232 197 195 241 245 259 3 5 9 359 307 262 256 294 299 300 310 339 350 337 326 318 316 308 295 292 299 303 307 307 306 305 300 296 299 306 308 308 309 308 307 306 302 290 278 270 267 265 264 268 275 279 280 277 275 277 277 271 262 254 247 242 238 232 228
149 211 192 192 206 213 219 217 174 143 155 200 220 208 199 194 185 181 178 197 219 230 219 220 237 250 251 223 240 284 291 276 274 290 295 281 283 312 331 334 325 316 311 312 310 300 296 295 295 296 296 295 294 292 295 302 305 305 305 306 306 304 304 304 299 288 276 269 266 266 267 271 277 278 275 272 273 274 272 266 257 249 243 238 233 231
116 218 206 205 218 223 221 204 168 159 177 201 210 204 199 196 187 185 201 216 216 215 237 234 226 248 254 231 215 251 259 263 273 280 284 285 301 316 319 314 309 307 305 304 302 297 293 290 290 291 292 292 290 290 297 303 303 303 304 305 305 302 301 302 300 295 285 275 268 267 269 272 274 274 272 270 268 269 270 267 260 252 245 238 234 233
138 211 211 204 224 234 224 190 180 181 191 201 204 204 201 194 189 197 211 221 214 201 236 240 214 231 251 235 204 233 235 226 249 269 281 289 298 301 302 301 300 301 300 298 295 292 291 292 293 293 291 289 288 293 300 302 302 303 303 304 305 302 301 300 298 296 292 283 274 270 270 272 274 274 271 268 266 265 267 267 262 254 247 241 236 234
147 211 213 183 221 241 228 204 191 186 192 211 213 209 203 198 199 204 213 222 220 212 233 244 234 239 251 228 179 224 235 233 251 275 284 284 285 287 290 291 291 292 291 290 289 289 291 292 292 291 290 288 291 298 301 301 302 304 305 305 305 303 302 300 297 297 295 290 285 278 272 270 273 274 272 268 266 264 264 265 264 257 250 246 240 237
169 217 176 127 208 247 231 195 171 158 151 215 251 233 213 210 211 215 219 222 224 227 233 243 253 256 252 194 182 232 243 259 277 278 277 279 280 282 283 283 281 280 280 285 289 290 291 292 291 291 290 292 296 300 302 304 306 307 306 306 306 306 305 300 297 296 294 294 294 286 276 272 272 273 273 270 267 264 263 263 263 259 253 248 243 240
88 212 35 88 203 243 225 159 145 125 107 242 264 248 228 217 208 217 225 220 219 226 231 237 251 257 248 172 217 258 257 261 273 271 270 274 276 278 279 278 278 280 284 289 292 292 292 292 291 291 293 297 302 305 307 309 309 307 306 307 307 306 305 300 297 296 294 294 294 289 282 278 274 273 273 271 267 265 263 262 262 261 256 250 245 241
87 104 69 116 197 243 234 142 127 109 96 242 244 235 230 222 190 193 222 227 223 219 224 230 236 252 260 211 227 271 272 256 265 270 270 269 269 271 276 278 282 287 292 295 295 294 296 296 296 298 302 306 308 310 311 309 308 307 307 308 308 305 302 299 297 296 294 293 291 288 286 282 277 274 274 272 269 266 264 262 261 261 258 253 247 243
118 114 186 164 189 249 245 118 118 182 222 239 239 224 219 218 207 208 222 228 222 208 222 241 246 259 270 256 234 252 260 260 266 272 276 275 267 265 276 281 286 290 293 295 297 300 303 304 306 307 307 309 308 307 308 308 308 309 309 308 307 303 299 298 296 295 294 292 290 287 285 282 279 276 275 273 270 267 264 263 262 262 260 256 249 245
176 164 196 184 199 254 209 117 197 227 225 247 263 227 208 211 213 222 232 231 223 215 222 241 251 253 255 255 252 250 256 265 270 274 278 279 275 274 279 282 287 292 295 297 300 304 307 306 306 305 304 304 306 306 308 310 309 308 308 306 305 302 300 296 293 292 292 290 288 286 283 282 281 279 276 274 271 267 265 264 263 261 260 257 252 248
184 183 183 184 192 230 185 185 220 245 272 287 279 245 215 206 201 216 239 244 233 225 224 231 243 249 251 253 256 258 264 273 277 275 275 279 286 287 285 286 291 294 296 300 303 304 306 307 306 307 307 307 309 311 313 314 312 311 311 310 307 305 302 296 292 292 291 289 288 287 286 284 282 280 277 274 271 268 267 265 263 262 260 257 254 251
185 180 185 209 201 205 231 227 243 306 304 276 263 241 163 163 172 181 224 247 230 218 223 229 238 246 250 253 258 265 273 280 282 277 278 289 296 293 292 294 299 302 302 305 310 310 311 312 311 312 313 313 314 316 316 315 315 315 313 312 310 308 303 297 294 292 290 289 291 292 290 288 284 281 278 274 271 270 269 267 265 262 260 257 255 253
191 185 187 205 202 196 225 243 252 260 256 251 255 235 153 178 186 170 193 242 233 213 217 224 234 240 246 256 260 263 272 283 280 281 293 311 301 302 316 319 317 330 331 323 321 319 316 316 315 315 317 317 317 318 316 314 313 311 308 309 310 309 304 300 299 296 293 294 297 296 292 288 284 281 278 275 273 272 271 269 266 263 261 258 257 256
200 197 192 203 205 196 211 229 232 233 244 248 253 241 189 189 177 141 178 246 258 212 209 215 228 235 236 245 249 246 250 260 257 282 333 354 315 316 337 335 328 333 335 332 328 323 321 321 319 319 320 319 318 318 316 312 309 306 306 308 310 308 306 306 305 302 299 297 296 293 289 285 282 280 277 275 274 273 272 269 266 264 261 259 258 258
200 199 199 208 211 206 211 226 232 233 245 239 231 231 198 174 149 128 198 246 319 334 213 212 227 246 246 251 249 227 199 224 257 298 340 338 315 313 323 331 333 329 328 331 328 321 319 319 317 316 317 317 316 315 315 313 310 309 311 313 313 312 312 311 307 302 297 293 290 288 286 283 281 279 277 276 275 274 271 268 265 263 261 259 257 257
197 195 199 207 215 215 215 226 241 237 240 238 216 179 159 143 136 175 205 224 356 21 46 59 51 35 13 9 20 228 242 275 293 307 319 320 317 314 316 323 328 327 327 326 322 318 316 313 313 314 313 313 314 313 314 313 311 311 314 314 315 318 319 313 306 300 295 291 288 286 285 283 281 279 277 276 274 271 269 266 264 262 260 258 256 255
193 196 201 203 213 220 217 228 247 249 247 228 177 156 145 141 174 229 154 63 32 52 63 57 51 37 17 19 21 340 315 316 312 310 315 320 321 320 318 319 319 318 317 316 313 314 312 309 310 311 310 312 314 314 314 313 310 310 310 310 312 316 316 313 310 306 301 295 291 288 285 283 281 278 276 274 271 268 266 264 262 260 258 256 254 253
187 190 199 198 203 210 215 226 233 239 328 25 134 155 149 157 190 27 53 36 36 49 55 52 51 39 19 11 1 341 327 321 317 315 315 316 320 323 321 320 319 317 315 313 311 312 311 309 309 309 310 311 313 314 314 312 310 309 308 307 309 310 308 309 311 309 305 301 298 294 290 285 281 278 275 272 269 267 265 262 259 256 254 252 251 250
201 198 203 206 199 190 205 224 213 158 47 48 82 123 128 116 90 67 57 42 34 31 30 33 32 25 20 13 357 344 333 326 324 324 320 319 321 322 322 321 320 319 318 316 315 316 315 312 310 310 311 312 313 313 312 310 308 307 305 306 308 306 304 305 305 304 304 303 300 297 293 288 283 278 274 271 268 265 261 258 255 253 251 249 248 247
219 188 161 200 221 192 193 203 165 97 67 75 92 107 111 101 78 66 62 51 36 25 20 19 13 9 9 5 356 349 340 333 329 328 327 323 319 318 321 321 319 318 319 318 318 319 316 313 311 311 311 312 314 313 310 307 305 304 304 305 306 303 302 301 299 298 298 298 297 295 292 287 283 279 275 271 266 262 258 255 252 249 247 245 244 243
208 153 121 127 252 285 299 151 135 65 69 101 104 97 93 85 67 56 48 37 29 22 15 7 0 0 360 353 350 349 346 343 338 333 331 327 320 319 320 319 319 320 320 319 319 320 318 314 312 311 309 309 311 310 308 306 306 305 305 305 303 300 299 298 297 295 294 293 292 291 288 285 281 277 273 268 263 258 255 254 251 248 246 243 241 241
292 167 145 121 198 236 312 113 99 353 118 134 120 92 86 83 63 48 38 28 21 15 8 360 353 352 353 352 350 345 340 341 338 332 330 327 323 321 322 322 322 322 321 321 320 319 318 316 315 313 311 308 306 306 305 305 304 304 305 304 302 298 296 295 294 294 292 291 290 288 286 283 279 275 270 263 257 252 250 248 247 246 245 243 240 240
258 151 154 190 188 191 225 233 352 343 160 149 120 80 87 84 57 41 30 18 11 4 357 355 351 346 343 346 346 338 332 331 332 331 328 324 321 321 322 322 321 320 320 321 320 317 316 315 314 314 313 309 307 305 303 302 302 303 304 304 302 298 295 294 293 292 290 288 287 285 284 281 277 273 267 261 254 249 246 244 242 242 242 242 242 241
98 106 167 160 153 287 286 289 8 61 156 170 78 60 73 58 32 27 14 1 357 349 340 334 334 332 330 332 333 331 326 324 327 329 325 319 317 318 318 317 317 317 317 317 318 317 315 313 312 311 309 308 308 307 304 302 302 303 305 305 303 300 297 295 293 290 288 286 284 283 281 278 274 270 265 259 253 248 245 243 242 242 242 243 244 246
108 180 207 106 87 286 253 219 81 75 244 275 13 54 44 353 345 347 346 346 348 346 337 327 321 315 315 322 328 329 326 322 322 325 321 315 313 313 313 312 312 311 312 313 314 315 314 314 313 310 307 306 306 306 305 303 303 304 305 306 304 301 298 295 292 289 287 286 284 282 279 274 270 265 260 255 251 246 242 240 238 239 241 242 244 246
180 213 220 134 163 243 243 216 138 217 264 296 34 54 347 331 333 335 339 341 341 339 335 331 328 321 315 317 322 326 326 322 320 321 317 312 310 309 308 308 307 307 308 309 311 312 312 313 312 310 308 307 305 303 302 302 301 301 302 304 304 300 296 293 291 288 287 285 284 280 275 270 265 259 254 250 247 244 241 237 233 231 233 236 239 241